Regional Weather Roundup
Issued by NWS

Home | Current Version | Previous Version | Text Only | Print | Product List | Glossary Off
Versions: 1 2 3 4 5 6 7 8 9 10 11 12 13 14 15 16 17 18 19 20 21 22 23 24 25 26 27 28 29 30 31 32 33 34 35 36 37 38 39 40 41 42 43 44 45 46 47 48 49 50

000
ASUS43 KBIS 231020
RWRND

NORTH DAKOTA REGIONAL WEATHER ROUNDUP
NATIONAL WEATHER SERVICE BISMARCK ND
500 AM CDT SAT AUG 23 2014

NOTE: "FAIR" INDICATES FEW OR NO CLOUDS BELOW 12,000 FEET WITH NO
SIGNIFICANT WEATHER AND/OR OBSTRUCTIONS TO VISIBILITY.


NDZ001>003-009>011-017-231100-
NORTHWEST NORTH DAKOTA

CITY           SKY/WX    TMP DP  RH WIND       PRES   REMARKS
WILLISTON      CLOUDY    60  54  80 NE12      30.09F
MINOT          CLOUDY    56  53  90 NE12      30.11F
MINOT AFB      MOCLDY    56  56  99 NE12      30.11F
$$

NDZ018>021-031>035-040>046-231100-
SOUTHWEST NORTH DAKOTA

CITY           SKY/WX    TMP DP  RH WIND       PRES   REMARKS
BISMARCK       CLOUDY    63  59  87 NE16      30.03F
DICKINSON      CLOUDY    61  60  97 E20G28    30.00F FOG
GARRISON         N/A     59  56  89 NE13      30.08S
HETTINGER ARPT LGT RAIN  63  61  93 E17G23    29.98F
$$

NDZ004>008-012>016-024-026-027-054-231100-
NORTHEAST NORTH DAKOTA

CITY           SKY/WX    TMP DP  RH WIND       PRES   REMARKS
GRAND FORKS    LGT RAIN  62  60  93 N13       30.05F FOG
GRND FRKS AFB  DRIZZLE   59  59 100 NE15      30.06F
DEVILS LAKE    CLOUDY    57  52  82 NE15      30.07F
$$

NDZ022-023-025-028>030-036>039-047>053-231100-
SOUTHEAST NORTH DAKOTA

CITY           SKY/WX    TMP DP  RH WIND       PRES   REMARKS
FARGO          CLOUDY    65  63  93 N9        30.00F FOG
JAMESTOWN      CLOUDY    61  58  90 NE12G20   30.04F
$$




USA.gov is the U.S. government's official web portal to all federal, state and local government web resources and services.